Weather History for Wheeler AAF, HI

Change the Weather History Date:

Sunday, June 23, 2013

  Actual Average Record
Temperature  
Mean Temperature 72 °F -  
Max Temperature 75 °F 79 °F 82 °F (2004)
Min Temperature 68 °F 66 °F 66 °F (1997)
Cooling Degree Days 6    
Growing Degree Days 22 (Base 50)    
Moisture  
Dew Point 68 °F    
Average Humidity 87    
Maximum Humidity 95    
Minimum Humidity 78    
Precipitation  
Precipitation 0.34 in - - ()
Sea Level Pressure  
Sea Level Pressure 30.09 in    
Wind  
Wind Speed 5 mph (NE)    
Max Wind Speed 14 mph    
Max Gust Speed -    
Visibility 9 miles    
Events Rain    
Averages and records for this station are not official NWS values.
T = Trace of Precipitation, MM = Missing Value Source: NWS Daily Summary

Daily Weather History Graph

Daily Weather History Graph

Search for Another Location

Airport:

Trip Planner

Search our weather history database for the weather conditions in past years. The results will help you decide how hot, cold, wet, or windy it might be!

Date:

Astronomy

Jun. 23, 2013 Rise Set
Actual Time 5:51 AM HST 7:17 PM HST
Civil Twilight 5:26 AM HST 7:42 PM HST
Nautical Twilight 4:56 AM HST 8:12 PM HST
Astronomical Twilight 4:25 AM HST 8:43 PM HST
Moon 7:51 PM HST (6/23) 6:13 AM HST (6/23)
Length of Visible Light 14h 16m
Length of Day
13h 26m
Full, 100% of the Moon is Illuminated
Jun 23
Full
Jun 29
Last Quarter
Jul 7
New
Jul 15
First Quarter
Jul 22
Full

Hourly Weather History & Observations

Time (HST) Temp. Dew Point Humidity Pressure Visibility Wind Dir Wind Speed Gust Speed Precip Events Conditions
12:09 AM 69.8 °F 68.0 °F 94% 30.10 in 7.0 mi Variable 4.6 mph - N/A Rain Light Rain
12:55 AM 70.0 °F 66.7 °F 89% 30.09 in 8.0 mi ENE 4.6 mph - 0.03 in Rain Light Rain
1:55 AM 70.3 °F 66.2 °F 87% 30.06 in 6.0 mi Calm Calm - 0.01 in Rain Light Rain
2:55 AM 69.6 °F 66.6 °F 90% 30.06 in 10.0 mi Calm Calm - 0.03 in   Light Drizzle
3:40 AM 69.8 °F 66.2 °F 88% 30.06 in 10.0 mi NNE 4.6 mph - N/A   Overcast
3:45 AM 69.8 °F 66.2 °F 88% 30.06 in 10.0 mi NE 3.5 mph - N/A   Overcast
3:47 AM 69.8 °F 66.2 °F 88% 30.05 in 10.0 mi Variable 4.6 mph - N/A   Light Drizzle
3:49 AM 69.8 °F 66.2 °F 88% 30.05 in 9.0 mi ENE 8.1 mph - N/A   Light Drizzle
3:55 AM 69.3 °F 65.8 °F 89% 30.06 in 6.0 mi NNE 4.6 mph - 0.02 in Rain Light Rain
4:55 AM 68.2 °F 65.8 °F 92% 30.06 in 5.0 mi WNW 3.5 mph - 0.06 in Rain Light Rain
5:38 AM 68.0 °F 66.2 °F 94% 30.07 in 6.0 mi Calm Calm - N/A Rain Light Rain
5:55 AM 68.5 °F 66.0 °F 92% 30.07 in 7.0 mi NW 3.5 mph - 0.03 in Rain Light Rain
6:01 AM 68.0 °F 66.2 °F 94% 30.07 in 10.0 mi Variable 3.5 mph - N/A   Mostly Cloudy
6:07 AM 68.0 °F 66.2 °F 94% 30.08 in 10.0 mi NNW 3.5 mph - N/A   Light Drizzle
6:55 AM 69.6 °F 66.2 °F 89% 30.09 in 9.0 mi WNW 4.6 mph - 0.02 in   Light Drizzle
7:55 AM 70.0 °F 66.4 °F 88% 30.10 in 9.0 mi NNW 4.6 mph - 0.02 in   Light Drizzle
8:47 AM 71.6 °F 68.0 °F 88% 30.10 in 10.0 mi North 5.8 mph - N/A   Mostly Cloudy
8:55 AM 71.2 °F 67.3 °F 87% 30.11 in 10.0 mi North 4.6 mph - 0.02 in   Mostly Cloudy
8:57 AM 71.6 °F 68.0 °F 88% 30.11 in 10.0 mi NNE 4.6 mph - N/A   Light Drizzle
9:12 AM 71.6 °F 68.0 °F 88% 30.11 in 10.0 mi ENE 5.8 mph - N/A   Mostly Cloudy
9:29 AM 71.6 °F 68.0 °F 88% 30.11 in 8.0 mi ENE 8.1 mph - N/A Rain Light Rain
9:47 AM 71.6 °F 68.0 °F 88% 30.12 in 4.0 mi ENE 4.6 mph - N/A Rain Light Rain
9:55 AM 70.9 °F 67.3 °F 88% 30.11 in 7.0 mi NE 3.5 mph - 0.02 in Rain Light Rain
10:18 AM 71.6 °F 68.0 °F 88% 30.12 in 6.0 mi ENE 6.9 mph - N/A Rain Light Rain
10:20 AM 71.6 °F 68.0 °F 88% 30.11 in 7.0 mi ENE 6.9 mph - N/A   Light Drizzle
10:25 AM 71.6 °F 68.0 °F 88% 30.11 in 6.0 mi ENE 6.9 mph - N/A   Light Drizzle
10:30 AM 71.6 °F 68.0 °F 88% 30.12 in 2.5 mi ENE 4.6 mph - N/A Rain Light Rain
10:40 AM 71.6 °F 68.0 °F 88% 30.12 in 3.0 mi Calm Calm - N/A Rain Light Rain
10:46 AM 71.6 °F 68.0 °F 88% 30.12 in 7.0 mi Calm Calm - N/A Rain Light Rain
10:53 AM 71.6 °F 68.0 °F 88% 30.12 in 7.0 mi Calm Calm - N/A Rain Light Rain
10:55 AM 71.6 °F 68.5 °F 90% 30.12 in 6.0 mi Calm Calm - 0.04 in Rain Rain
11:11 AM 71.6 °F 68.0 °F 88% 30.11 in 10.0 mi NNE 4.6 mph - N/A   Scattered Clouds
11:12 AM 73.4 °F 68.0 °F 83% 30.11 in 10.0 mi NNE 5.8 mph - N/A   Mostly Cloudy
11:14 AM 73.4 °F 68.0 °F 83% 30.11 in 10.0 mi Variable 5.8 mph - N/A   Light Drizzle
11:55 AM 74.1 °F 69.6 °F 86% 30.11 in 9.0 mi NE 8.1 mph - 0.00 in Rain Light Rain
12:39 PM 73.4 °F 69.8 °F 88% 30.10 in 10.0 mi ENE 13.8 mph - N/A   Mostly Cloudy
12:48 PM 75.2 °F 69.8 °F 83% 30.10 in 10.0 mi ENE 11.5 mph - N/A   Light Drizzle
12:55 PM 74.3 °F 69.6 °F 85% 30.10 in 9.0 mi NE 11.5 mph - 0.01 in   Light Drizzle
1:15 PM 75.2 °F 69.8 °F 83% 30.09 in 10.0 mi NNE 12.7 mph - N/A   Mostly Cloudy
1:18 PM 75.2 °F 69.8 °F 83% 30.09 in 10.0 mi NE 12.7 mph - N/A   Light Drizzle
1:32 PM 73.4 °F 69.8 °F 88% 30.09 in 7.0 mi ENE 8.1 mph - N/A   Mostly Cloudy
1:42 PM 75.2 °F 69.8 °F 83% 30.09 in 7.0 mi ENE 8.1 mph - N/A Rain Light Rain
1:55 PM 74.1 °F 69.8 °F 86% 30.09 in 9.0 mi ENE 8.1 mph - 0.01 in   Light Drizzle
1:58 PM 75.2 °F 69.8 °F 83% 30.09 in 10.0 mi ENE 9.2 mph - N/A   Mostly Cloudy
2:55 PM 75.4 °F 68.4 °F 79% 30.08 in 10.0 mi East 5.8 mph - 0.00 in   Mostly Cloudy
3:15 PM 75.2 °F 68.0 °F 78% 30.07 in 10.0 mi ENE 8.1 mph - N/A   Light Drizzle
3:26 PM 75.2 °F 68.0 °F 78% 30.07 in 10.0 mi East 4.6 mph - N/A   Mostly Cloudy
3:38 PM 75.2 °F 68.0 °F 78% 30.07 in 9.0 mi ENE 5.8 mph - N/A   Light Drizzle
3:48 PM 75.2 °F 68.0 °F 78% 30.07 in 10.0 mi NE 8.1 mph - N/A   Mostly Cloudy
3:54 PM 75.2 °F 68.0 °F 78% 30.07 in 10.0 mi East 6.9 mph - N/A   Mostly Cloudy
3:55 PM 75.4 °F 68.7 °F 80% 30.07 in 10.0 mi East 8.1 mph - 0.00 in   Mostly Cloudy
3:57 PM 75.2 °F 68.0 °F 78% 30.07 in 10.0 mi ENE 9.2 mph - N/A   Mostly Cloudy
3:59 PM 75.2 °F 68.0 °F 78% 30.07 in 10.0 mi East 8.1 mph - N/A   Overcast
4:01 PM 75.2 °F 68.0 °F 78% 30.07 in 9.0 mi East 8.1 mph - N/A   Light Drizzle
4:02 PM 75.2 °F 68.0 °F 78% 30.07 in 8.0 mi East 6.9 mph - N/A   Light Drizzle
4:12 PM 73.4 °F 68.0 °F 83% 30.07 in 8.0 mi East 4.6 mph - N/A   Mostly Cloudy
4:18 PM 73.4 °F 68.0 °F 83% 30.06 in 10.0 mi Calm Calm - N/A   Overcast
4:20 PM 73.4 °F 68.0 °F 83% 30.06 in 10.0 mi Calm Calm - N/A   Overcast
4:22 PM 73.4 °F 68.0 °F 83% 30.06 in 10.0 mi East 3.5 mph - N/A   Overcast
4:45 PM 73.4 °F 68.0 °F 83% 30.06 in 10.0 mi Calm Calm - N/A   Overcast
4:50 PM 73.4 °F 68.0 °F 83% 30.06 in 10.0 mi Variable 6.9 mph - N/A   Overcast
4:54 PM 73.4 °F 68.0 °F 83% 30.06 in 10.0 mi East 8.1 mph - N/A   Overcast
4:55 PM 73.8 °F 68.0 °F 82% 30.06 in 10.0 mi East 8.1 mph - 0.00 in   Overcast
5:01 PM 73.4 °F 68.0 °F 83% 30.06 in 10.0 mi ENE 5.8 mph - N/A   Overcast
5:04 PM 73.4 °F 68.0 °F 83% 30.06 in 10.0 mi East 9.2 mph - N/A   Overcast
5:07 PM 73.4 °F 68.0 °F 83% 30.05 in 10.0 mi East 9.2 mph - N/A   Overcast
5:17 PM 73.4 °F 68.0 °F 83% 30.06 in 9.0 mi ENE 8.1 mph - N/A   Light Drizzle
5:19 PM 73.4 °F 68.0 °F 83% 30.06 in 9.0 mi ENE 5.8 mph - N/A   Light Drizzle
5:20 PM 73.4 °F 68.0 °F 83% 30.06 in 9.0 mi ENE 5.8 mph - N/A   Light Drizzle
5:24 PM 73.4 °F 68.0 °F 83% 30.06 in 9.0 mi ENE 3.5 mph - N/A   Light Drizzle
5:26 PM 73.4 °F 68.0 °F 83% 30.06 in 10.0 mi ENE 4.6 mph - N/A   Mostly Cloudy
5:31 PM 71.6 °F 68.0 °F 88% 30.06 in 10.0 mi ENE 5.8 mph - N/A   Mostly Cloudy
5:47 PM 73.4 °F 68.0 °F 83% 30.06 in 10.0 mi Calm Calm - N/A   Mostly Cloudy
5:51 PM 73.4 °F 68.0 °F 83% 30.06 in 10.0 mi Variable 4.6 mph - N/A   Mostly Cloudy
5:55 PM 73.2 °F 67.3 °F 82% 30.06 in 10.0 mi North 8.1 mph - 0.00 in   Mostly Cloudy
6:05 PM 73.4 °F 66.2 °F 78% 30.06 in 10.0 mi NE 5.8 mph - N/A   Mostly Cloudy
6:15 PM 73.4 °F 68.0 °F 83% 30.07 in 5.0 mi ENE 5.8 mph - N/A Rain Light Rain
6:25 PM 71.6 °F 68.0 °F 88% 30.07 in 10.0 mi ENE 5.8 mph - N/A   Overcast
6:53 PM 71.6 °F 68.0 °F 88% 30.08 in 10.0 mi NE 8.1 mph - N/A   Mostly Cloudy
6:55 PM 71.8 °F 67.5 °F 86% 30.08 in 10.0 mi NE 6.9 mph - 0.00 in   Scattered Clouds
7:55 PM 71.1 °F 66.4 °F 85% 30.10 in 10.0 mi NNE 5.8 mph - N/A   Mostly Cloudy
8:02 PM 71.6 °F 66.2 °F 83% 30.10 in 10.0 mi NNE 5.8 mph - N/A   Light Drizzle
8:17 PM 69.8 °F 66.2 °F 88% 30.11 in 10.0 mi NNE 3.5 mph - N/A   Mostly Cloudy
8:23 PM 69.8 °F 68.0 °F 94% 30.11 in 10.0 mi NNE 4.6 mph - N/A   Light Drizzle
8:42 PM 69.8 °F 68.0 °F 94% 30.11 in 10.0 mi NE 4.6 mph - N/A   Mostly Cloudy
8:53 PM 71.6 °F 68.0 °F 88% 30.10 in 10.0 mi NE 6.9 mph - N/A   Light Drizzle
8:55 PM 70.7 °F 67.5 °F 89% 30.11 in 10.0 mi ENE 5.8 mph - 0.00 in   Light Drizzle
9:00 PM 69.8 °F 68.0 °F 94% 30.11 in 10.0 mi ENE 3.5 mph - N/A   Light Drizzle
9:08 PM 69.8 °F 68.0 °F 94% 30.11 in 10.0 mi Calm Calm - N/A   Partly Cloudy
9:12 PM 69.8 °F 68.0 °F 94% 30.11 in 10.0 mi Calm Calm - N/A   Partly Cloudy
9:19 PM 69.8 °F 68.0 °F 94% 30.11 in 10.0 mi Calm Calm - N/A   Partly Cloudy
9:20 PM 69.8 °F 68.0 °F 94% 30.11 in 10.0 mi Calm Calm - N/A   Light Drizzle
9:21 PM 69.8 °F 68.0 °F 94% 30.11 in 10.0 mi Calm Calm - N/A   Light Drizzle
9:30 PM 69.8 °F 68.0 °F 94% 30.12 in 10.0 mi Calm Calm - N/A   Clear
9:39 PM 69.8 °F 68.0 °F 94% 30.12 in 8.0 mi Calm Calm - N/A Rain Light Rain
9:49 PM 69.8 °F 68.0 °F 94% 30.13 in 5.0 mi Calm Calm - N/A   Light Drizzle
9:55 PM 69.6 °F 67.5 °F 93% 30.13 in 7.0 mi Calm Calm - 0.01 in   Light Drizzle
9:58 PM 69.8 °F 68.0 °F 94% 30.13 in 8.0 mi Calm Calm - N/A   Light Drizzle
10:00 PM 69.8 °F 68.0 °F 94% 30.13 in 10.0 mi WNW 3.5 mph - N/A   Mostly Cloudy
10:03 PM 69.8 °F 68.0 °F 94% 30.13 in 8.0 mi Calm Calm - N/A   Light Drizzle
10:04 PM 69.8 °F 68.0 °F 94% 30.13 in 8.0 mi Calm Calm - N/A   Light Drizzle
10:13 PM 69.8 °F 68.0 °F 94% 30.13 in 6.0 mi Calm Calm - N/A   Light Drizzle
10:15 PM 69.8 °F 68.0 °F 94% 30.13 in 7.0 mi Calm Calm - N/A   Light Drizzle
10:18 PM 69.8 °F 68.0 °F 94% 30.13 in 9.0 mi Calm Calm - N/A   Light Drizzle
10:19 PM 69.8 °F 68.0 °F 94% 30.13 in 10.0 mi Calm Calm - N/A   Mostly Cloudy
10:32 PM 69.8 °F 66.2 °F 88% 30.12 in 10.0 mi Calm Calm - N/A   Partly Cloudy
10:52 PM 69.8 °F 68.0 °F 94% 30.12 in 10.0 mi Calm Calm - N/A   Light Drizzle
10:55 PM 69.1 °F 67.3 °F 94% 30.12 in 10.0 mi Calm Calm - 0.00 in   Light Drizzle
11:02 PM 69.8 °F 68.0 °F 94% 30.12 in 10.0 mi Calm Calm - N/A   Scattered Clouds
11:14 PM 68.0 °F 66.2 °F 94% 30.12 in 10.0 mi NW 3.5 mph - N/A   Light Drizzle
11:31 PM 69.8 °F 68.0 °F 94% 30.12 in 10.0 mi West 3.5 mph - N/A   Scattered Clouds
11:55 PM 68.5 °F 67.1 °F 95% 30.11 in 10.0 mi Calm Calm - 0.01 in   Clear